GW0434 Weather Reports


Display with metric or nautical units.
time (UTC)temp
F
wind
direction
speed
MPH
gust
MPH
rain 1hr
in
rain 24hr
in
rain mn
in
humidity
%
barometer
mb
20260506061552 49 175 0.0 2.0 0.00 0.04 0.00 81 1016.8
20260506044548 52 84 1.0 3.0 0.00 0.04 0.00 77 1015.5
20260506043049 53 241 1.0 7.0 0.00 0.04 0.00 75 1015.3
20260506041556 54 0 2.0 6.0 0.00 0.04 0.00 73 1014.9
20260506040053 55 0 0.0 3.0 0.00 0.04 0.00 70 1014.7
20260506034550 56 208 1.0 6.0 0.00 0.04 0.00 67 1014.2
20260506033051 57 326 4.0 9.0 0.00 0.04 0.00 66 1014.1
20260506031554 57 288 3.0 8.0 0.00 0.04 0.00 65 1014.2
20260506030053 59 106 0.0 8.0 0.00 0.04 0.00 63 1013.4
20260506024553 59 256 0.0 6.0 0.00 0.15 0.00 61 1013.4
20260506023103 60 306 0.0 6.0 0.00 0.15 0.00 60 1013.1
20260506021609 60 17 1.0 7.0 0.00 0.15 0.00 60 1013.1
20260506020048 61 338 0.0 9.0 0.00 0.15 0.00 60 1013.1
20260506014553 63 298 1.0 7.0 0.00 0.24 0.00 55 1012.7
20260506013100 65 248 3.0 8.0 0.00 0.24 0.00 53 1012.7
20260506011614 66 94 2.0 7.0 0.00 0.24 0.00 51 1012.6
20260506010058 66 286 2.0 6.0 0.00 0.24 0.00 50 1012.7
20260506004550 67 245 2.0 7.0 0.00 0.24 0.00 49 1012.6
20260506003054 66 317 3.0 9.0 0.00 0.24 0.00 49 1012.6
20260506001555 64 313 1.0 5.0 0.00 0.24 0.00 55 1012.5
20260506000051 64 288 3.0 8.0 0.00 0.24 0.00 53 1012.6
20260505234546 65 68 1.0 8.0 0.00 0.25 0.00 51 1012.4
20260505233047 67 183 4.0 9.0 0.00 0.25 0.00 47 1012.4
20260505231604 66 269 1.0 5.0 0.00 0.25 0.00 48 1012.6
20260505230049 65 288 3.0 7.0 0.00 0.25 0.00 48 1012.7
20260505224554 66 0 1.0 7.0 0.00 0.26 0.00 47 1012.8
20260505223051 65 225 2.0 8.0 0.00 0.26 0.00 48 1012.9
20260505221549 65 352 2.0 7.0 0.00 0.26 0.00 53 1012.9
20260505220054 64 233 3.0 7.0 0.00 0.26 0.00 51 1013.2
20260505214557 64 149 2.0 6.0 0.00 0.26 0.00 55 1013.3
20260505213053 63 253 3.0 7.0 0.00 0.26 0.00 51 1013.4
20260505211552 63 53 2.0 7.0 0.00 0.26 0.00 52 1013.6
20260505210051 62 182 2.0 7.0 0.00 0.26 0.00 52 1013.6
20260505204555 61 159 2.0 5.0 0.00 0.26 0.00 58 1013.7
20260505203119 60 307 2.0 6.0 0.00 0.26 0.00 59 1013.8
20260505201600 60 191 3.0 9.0 0.00 0.26 0.00 64 1013.8
20260505200057 59 277 1.0 5.0 0.00 0.26 0.00 64 1013.9
20260505194548 57 0 0.0 5.0 0.00 0.26 0.00 67 1014.0
20260505193051 57 172 2.0 7.0 0.00 0.26 0.00 68 1014.2
20260505191603 55 304 2.0 7.0 0.00 0.26 0.00 68 1014.3
20260505190050 55 232 3.0 7.0 0.00 0.26 0.00 69 1014.3
20260505184552 54 289 2.0 5.0 0.00 0.26 0.00 71 1014.2
20260505183052 52 71 0.0 4.0 0.00 0.26 0.00 73 1014.2
20260505181552 52 352 1.0 5.0 0.00 0.26 0.00 76 1014.3
20260505180101 50 319 2.0 6.0 0.00 0.26 0.00 76 1014.3
20260505174555 50 232 1.0 3.0 0.00 0.26 0.00 80 1014.3
20260505173055 49 257 0.0 4.0 0.00 0.26 0.00 83 1014.2
20260505171550 48 219 1.0 4.0 0.00 0.26 0.00 83 1014.1
20260505170106 47 174 1.0 3.0 0.00 0.26 0.00 86 1014.1
20260505164554 47 126 0.0 3.0 0.00 0.26 0.00 88 1013.9
20260505163051 46 241 0.0 3.0 0.00 0.26 0.00 89 1013.9
20260505161614 45 207 1.0 3.0 0.00 0.26 0.00 90 1013.8
20260505153101 43 0 0.0 2.0 0.00 0.28 0.00 90 1013.5
20260505151603 42 248 0.0 2.0 0.00 0.28 0.00 90 1013.4
20260505124550 41 5 0.0 1.0 0.00 0.28 0.00 91 1012.2
20260505123047 41 0 0.0 2.0 0.00 0.28 0.00 91 1012.3
20260505121608 41 352 0.0 2.0 0.00 0.28 0.00 91 1012.2
20260505120048 41 333 1.0 7.0 0.00 0.28 0.00 91 1012.2
20260505114554 41 333 2.0 6.0 0.00 0.28 0.00 96 1012.3
20260505113050 41 306 0.0 2.0 0.00 0.28 0.00 91 1012.3
20260505111552 41 306 0.0 1.0 0.00 0.28 0.00 91 1012.3
20260505101555 41 0 0.0 2.0 0.00 0.28 0.00 91 1012.3
20260505100045 41 285 0.0 2.0 0.00 0.28 0.00 91 1012.4
20260505094546 41 0 0.0 1.0 0.00 0.28 0.00 91 1012.4
20260505093047 40 0 0.0 1.0 0.00 0.28 0.00 91 1012.7
20260505091550 40 0 0.0 0.0 0.00 0.28 0.00 90 1012.8
20260505090059 40 0 0.0 1.0 0.00 0.28 0.00 90 1012.9
20260505084551 40 0 0.0 2.0 0.00 0.28 0.00 90 1012.9
20260505083056 40 285 1.0 2.0 0.00 0.28 0.00 90 1013.1
20260505081550 40 0 0.0 2.0 0.00 0.28 0.00 90 1013.1
20260505080049 40 0 0.0 1.0 0.00 0.28 0.00 90 1013.3
20260505074549 40 154 0.0 3.0 0.00 0.28 0.00 90 1013.4
20260505073048 40 0 0.0 2.0 0.00 0.28 0.00 90 1013.4
20260505071548 39 341 0.0 2.0 0.01 0.28 0.00 90 1013.2
20260505070051 39 9 1.0 3.0 0.04 0.28 0.00 90 1013.0